This demonstration page uses our WeatherBlox Daily Observations layout. Learn more.

Left ArrowRight Arrow

38.20091, -84.87328

Hourly Observations for May 17, 2020

Temp ( °F °C ) Dew Point ( °F °C ) Humidity (%) Winds ( mph kmh ) Pressure ( in mb ) Visibility ( mi km ) Precip ( " mm )
12:53 am 00:53 Clear 68 20 63 17.2 84 84 E 6 9 29.95 1014 10 16 0.00 0.00
1:53 am 01:53 Clear 68 20 63 17.2 84 84 ESE 3 6 29.94 1014 10 16 0.00 0.00
2:53 am 02:53 Clear 66 18.9 63 17.2 90 90 Calm 29.93 1014 10 16 0.00 0.00
3:53 am 03:53 Clear 64 17.8 61 16.1 90 90 Calm 29.92 1013 9 14 0.00 0.00
4:53 am 04:53 Mostly Cloudy 64 17.8 61 16.1 90 90 Calm 29.91 1013 8 13 0.00 0.00
5:38 am 05:38 Clear with Mist and Fog 63 17.2 61 16.1 93 93 Calm 29.92 1013 2 3 0.00 0.00
5:53 am 05:53 Clear 63 17.2 61 16.1 93 93 Calm 29.91 1013 7 11 0.00 0.00
6:53 am 06:53 Mostly Cloudy 65 18.3 62 16.7 90 90 SE 5 7 29.93 1013 10 16 0.00 0.00
7:53 am 07:53 Partly Cloudy 67 19.4 63 17.2 87 87 SSE 6 9 29.93 1014 10 16 0.00 0.00
8:53 am 08:53 Sunny 70 21.1 63 17.2 79 79 SSE 5 7 29.94 1014 10 16 0.00 0.00
9:53 am 09:53 Sunny 74 23.3 63 17.2 69 69 SSW 8 13 29.95 1014 10 16 0.00 0.00
10:53 am 10:53 Sunny 77 25 64 17.8 64 64 SSE 10 17 29.94 1014 10 16 0.00 0.00
11:53 am 11:53 Sunny 79 26.1 64 17.8 60 60 S 9 15 29.93 1014 10 16 0.00 0.00
12:53 pm 12:53 Mostly Cloudy 81 27.2 63 17.2 54 54 SSW 12 19 29.93 1013 10 16 0.00 0.00
1:53 pm 13:53 Partly Cloudy 83 28.3 63 17.2 51 51 SSW 12 19 29.90 1013 10 16 0.00 0.00
2:53 pm 14:53 Mostly Cloudy 81 27.2 62 16.7 53 53 S 9 15 29.88 1012 10 16 0.00 0.00
3:53 pm 15:53 Mostly Cloudy 80 26.7 62 16.7 54 54 SSW 8 13 29.86 1011 10 16 0.00 0.00
4:53 pm 16:53 Mostly Sunny 80 26.7 64 17.8 58 58 WSW 6 9 29.85 1011 10 16 0.00 0.00
5:53 pm 17:53 Mostly Cloudy 79 26.1 65 18.3 62 62 SW 5 7 29.83 1010 10 16 0.00 0.00
6:53 pm 18:53 Mostly Cloudy 78 25.6 66 18.9 67 67 SE 5 7 29.81 1010 10 16 0.00 0.00
7:53 pm 19:53 Mostly Cloudy 76 24.4 69 20.6 79 79 SE 3 6 29.80 1009 10 16 0.00 0.00
8:53 pm 20:53 Cloudy 75 23.9 65 18.3 71 71 S 3 6 29.80 1009 10 16 0.00 0.00
9:53 pm 21:53 Cloudy 73 22.8 63 17.2 71 71 SSW 8 13 29.80 1009 10 16 0.00 0.00
10:53 pm 22:53 Cloudy 73 22.8 63 17.2 71 71 S 5 7 29.81 1009 10 16 0.00 0.00
11:53 pm 23:53 Mostly Clear 71 21.7 63 17.2 76 76 SSE 7 11 29.79 1009 10 16 0.00 0.00

Powered by AerisWeather